[[{"header":{"parameterUnit":"m.s-1","parameterCategory":1,"la1":30.2991,"la2":30.254,"lo1":-89.0895,"lo2":-89.0444,"dy":0.0017,"dx":0.0017,"nx":28,"ny":28,"refTime":"2025-01-22T09:00:00:Z","depth":0,"parameterNumber":2,"parameterNumberName":"U-component_of_WINDS"},"data":[0,0,0,0,0,0,0,0,0,0,0,0,0,0,0,0,0,0,0,0,0,0,0,0,0,0,0,0,0,0,0,0,0,0,0,0,0,0,0,0,0,0,0,0,0,0,0,0,0,0,0,0,0,0,0,0,0,0,-0.4001,-0.4,0,-0.3963,-0.3963,-0.3963,-0.3913,-0.3912,-0.3911,-0.3911,-0.3875,-0.3875,-0.3875,0,0,0,0,0,0,0,0,0,0,0,0,0,-0.4031,-0.4031,-0.4001,-0.4,-0.4,-0.3964,-0.3963,-0.3963,-0.3913,-0.3912,-0.3911,-0.391,-0.3875,-0.3875,-0.3875,0,0,0,0,0,0,0,0,0,0,0,0,0,-0.4009,-0.4031,-0.4001,-0.3971,-0.3968,-0.3964,-0.3963,-0.3962,-0.3913,-0.3912,-0.3911,-0.391,-0.3875,-0.3875,-0.3875,-0.3898,0,0,-0.3874,-0.3874,0,0,0,0,0,0,0,0,-0.401,-0.4008,-0.3976,-0.3973,-0.3969,-0.3942,-0.3961,-0.3941,-0.3914,-0.3934,-0.3911,-0.3909,-0.3898,-0.3896,-0.3892,-0.3897,-0.3895,-0.3874,-0.3874,-0.3874,-0.3874,0,0,0,0,0,0,0,-0.4012,-0.4009,-0.3986,-0.3975,-0.3971,-0.396,-0.3955,-0.3957,-0.3924,-0.3932,-0.3928,-0.3925,-0.3897,-0.3892,-0.3891,-0.3894,-0.3874,-0.3874,-0.3874,-0.3874,-0.3917,-0.3918,0,0,0,0,0,0,-0.4017,-0.401,-0.3987,-0.3985,-0.3987,-0.396,-0.3955,-0.3952,-0.3924,-0.3918,-0.3926,-0.3922,-0.3893,-0.3891,-0.3889,-0.3916,-0.3874,-0.3874,-0.3873,-0.3916,-0.3917,-0.3919,0,0,0,0,0,0,-0.4018,-0.4016,-0.3989,-0.3997,-0.3992,-0.3961,-0.3958,-0.3952,-0.3947,-0.3919,-0.3913,-0.3927,-0.3892,-0.389,-0.3896,-0.3914,-0.3873,-0.3873,-0.3914,-0.3916,-0.3918,-0.3968,0,0,0,0,0,0,-0.4019,-0.4016,-0.4024,-0.3997,-0.3992,-0.3996,-0.3959,-0.3952,-0.3947,-0.3942,-0.3919,-0.3914,-0.3891,-0.3897,-0.3896,-0.3913,-0.3873,-0.3913,-0.3915,-0.3917,-0.3965,-0.3972,-0.3977,0,0,0,0,0,-0.402,-0.404,-0.4025,-0.4022,-0.4001,-0.3997,-0.3994,-0.3967,-0.3948,-0.3957,-0.3938,-0.3914,-0.3912,-0.3898,-0.3897,-0.3913,-0.3911,-0.3914,-0.3917,-0.3962,-0.397,-0.3977,0,0,0,0,0,0,-0.4071,-0.4036,-0.4019,-0.403,-0.4017,-0.3988,-0.3998,-0.3976,-0.3969,-0.3965,-0.3932,-0.3927,-0.3938,-0.3926,-0.3912,-0.3935,-0.3908,-0.3911,-0.3943,-0.395,-0.3956,-0.396,-0.3873,0,0,0,0,0,-0.4083,-0.4082,-0.4052,-0.4065,-0.4059,-0.403,-0.4027,-0.4007,-0.3992,-0.3986,-0.3968,-0.3955,-0.3952,-0.395,-0.3945,-0.3962,-0.3957,-0.3973,-0.398,-0.3985,-0.3988,-0.3998,-0.4005,-0.3928,-0.3928,-0.3928,0,0,-0.4109,-0.409,-0.4091,-0.4074,-0.4062,-0.4062,-0.4025,-0.4027,-0.4027,-0.3987,-0.3992,-0.3978,-0.3962,-0.3974,-0.3979,-0.3965,-0.4008,-0.3989,-0.3993,-0.3993,-0.4001,-0.4009,-0.4015,-0.393,-0.393,-0.393,0,0,-0.4157,-0.4141,-0.4151,-0.4138,-0.4119,-0.41,-0.4102,-0.4077,-0.4066,-0.4071,-0.4041,-0.4041,-0.4035,-0.4024,-0.4019,-0.4062,-0.404,-0.4061,-0.4094,-0.4104,-0.411,-0.4115,-0.4132,-0.4138,-0.4064,-0.4064,-0.4064,0,-0.4191,-0.4189,-0.4159,-0.4162,-0.4156,-0.4119,-0.4129,-0.4119,-0.4099,-0.4097,-0.408,-0.4072,-0.4059,-0.4069,-0.4079,-0.4075,-0.4078,-0.4064,-0.4111,-0.4116,-0.4121,-0.4136,-0.4143,-0.4067,-0.4067,-0.4066,-0.4066,0,-0.4234,-0.4233,-0.4243,-0.4224,-0.4219,-0.4226,-0.4197,-0.4196,-0.4177,-0.4159,-0.4165,-0.4147,-0.4138,-0.4138,-0.412,-0.4146,-0.4138,-0.4117,-0.409,-0.4131,-0.4146,-0.4151,-0.4071,-0.407,-0.4069,-0.4069,0,0,-0.4313,-0.4277,-0.4281,-0.4273,-0.4249,-0.4248,-0.4253,-0.4243,-0.4244,-0.4231,-0.4236,-0.4232,-0.4212,-0.4206,-0.4185,-0.4194,-0.4231,-0.4172,-0.4171,-0.4185,-0.426,-0.4277,-0.4284,-0.4215,-0.4216,-0.4217,-0.4262,0,-0.4356,-0.4363,-0.4335,-0.4349,-0.4349,-0.4313,-0.4318,-0.4305,-0.4288,-0.4286,-0.4268,-0.4266,-0.424,-0.4236,-0.4243,-0.4225,-0.4246,-0.4221,-0.4221,-0.4221,-0.4227,-0.4291,-0.4309,-0.4352,-0.4267,-0.4268,-0.4268,0,-0.4408,-0.4398,-0.4412,-0.4388,-0.4387,-0.4392,-0.4381,-0.4379,-0.4363,-0.4351,-0.4343,-0.4319,-0.4324,-0.4297,-0.4303,-0.4287,-0.4285,-0.4277,-0.4278,-0.4278,-0.4248,-0.4295,-0.4365,-0.4372,-0.4277,-0.4276,-0.4275,0,-0.4466,-0.4456,-0.4463,-0.4457,-0.4428,-0.4433,-0.4421,-0.4404,-0.44,-0.4391,-0.4388,-0.438,-0.4376,-0.4371,-0.4346,-0.4328,-0.4356,-0.4326,-0.4347,-0.4348,-0.4356,-0.4356,-0.4428,-0.4352,-0.4352,-0.4352,-0.4352,0,-0.4519,-0.4529,-0.4489,-0.4494,-0.4505,-0.4473,-0.4485,-0.447,-0.4455,-0.4457,-0.4425,-0.4428,-0.4394,-0.4393,-0.4374,-0.4383,-0.4381,-0.4372,-0.4367,-0.4376,-0.4377,-0.4375,-0.4372,-0.4354,-0.4353,-0.4353,-0.4353,0,-0.4586,-0.4559,-0.4565,-0.4537,-0.4531,-0.454,-0.4517,-0.452,-0.4502,-0.4505,-0.4503,-0.4475,-0.4472,-0.4446,-0.4438,-0.4425,-0.4443,-0.4431,-0.4448,-0.4445,-0.4468,-0.4466,-0.4542,-0.4551,-0.4469,-0.4469,-0.447,0,-0.4622,-0.4629,-0.4602,-0.46,-0.459,-0.4588,-0.4584,-0.4553,-0.455,-0.4533,-0.4539,-0.4533,-0.4528,-0.4526,-0.4505,-0.4499,-0.4488,-0.4515,-0.4487,-0.4496,-0.449,-0.449,-0.4492,-0.4521,-0.4522,-0.4523,-0.4524,0,-0.4689,-0.4675,-0.467,-0.466,-0.4656,-0.4647,-0.4636,-0.4637,-0.4603,-0.4602,-0.4598,-0.4594,-0.4585,-0.4581,-0.4571,-0.456,-0.4537,-0.4533,-0.4537,-0.4547,-0.4557,-0.4553,-0.4466,-0.4531,-0.4531,-0.453,-0.453,-0.4529,-0.4742,-0.4747,-0.4729,-0.4724,-0.4713,-0.4703,-0.4706,-0.4687,-0.4683,-0.4674,-0.4656,-0.4655,-0.464,-0.4624,-0.4615,-0.4615,-0.4601,-0.4608,-0.461,-0.4612,-0.4617,-0.4556,-0.4613,-0.4613,-0.4612,-0.4612,-0.4612,0,-0.4809,-0.4795,-0.4791,-0.4777,-0.4773,-0.475,-0.4737,-0.4736,-0.4736,-0.4723,-0.4718,-0.4715,-0.471,-0.4689,-0.4682,-0.4687,-0.4676,-0.4686,-0.4686,-0.4684,-0.4629,-0.4627,-0.4695,-0.4695,-0.4695,-0.4695,-0.4695,-0.4695,-0.4843,-0.4851,-0.4835,-0.4837,-0.4823,-0.4822,-0.4817,-0.4808,-0.4798,-0.4795,-0.4791,-0.4777,-0.4761,-0.4753,-0.4748,-0.4742,-0.4742,-0.4756,-0.4747,-0.4696,-0.4688,-0.4681,-0.4678,-0.4756,-0.4756,-0.4802,-0.4802,-0.4802]},{"header":{"parameterUnit":"m.s-1","parameterCategory":1,"la1":30.2991,"la2":30.254,"lo1":-89.0895,"lo2":-89.0444,"dy":0.0017,"dx":0.0017,"nx":28,"ny":28,"refTime":"2025-01-22T09:00:00:Z","depth":0,"parameterNumber":3,"parameterNumberName":"V-component_of_WINDS"},"data":[0,0,0,0,0,0,0,0,0,0,0,0,0,0,0,0,0,0,0,0,0,0,0,0,0,0,0,0,0,0,0,0,0,0,0,0,0,0,0,0,0,0,0,0,0,0,0,0,0,0,0,0,0,0,0,0,0,0,-0.8605,-0.8605,0,-0.8658,-0.8658,-0.8659,-0.8646,-0.8645,-0.8644,-0.8643,-0.8697,-0.8699,-0.8701,0,0,0,0,0,0,0,0,0,0,0,0,0,-0.8492,-0.8494,-0.8605,-0.8605,-0.8606,-0.8657,-0.8658,-0.8659,-0.8646,-0.8645,-0.8643,-0.8642,-0.8696,-0.8699,-0.8701,0,0,0,0,0,0,0,0,0,0,0,0,0,-0.8543,-0.8495,-0.8605,-0.8606,-0.8606,-0.8657,-0.8658,-0.8659,-0.8646,-0.8645,-0.8643,-0.8642,-0.8695,-0.8698,-0.8702,-0.8755,0,0,-0.8713,-0.8714,0,0,0,0,0,0,0,0,-0.854,-0.8547,-0.8605,-0.8606,-0.8607,-0.8643,-0.8638,-0.8691,-0.8646,-0.8631,-0.8643,-0.8641,-0.868,-0.8685,-0.8698,-0.8758,-0.876,-0.8713,-0.8715,-0.8717,-0.8718,0,0,0,0,0,0,0,-0.8536,-0.8545,-0.8626,-0.8606,-0.8607,-0.8604,-0.8609,-0.8648,-0.8664,-0.8632,-0.8631,-0.8638,-0.868,-0.8695,-0.8699,-0.8761,-0.8713,-0.8716,-0.8718,-0.872,-0.8867,-0.8869,0,0,0,0,0,0,-0.8532,-0.8542,-0.8624,-0.8627,-0.8569,-0.8607,-0.8613,-0.8633,-0.8663,-0.8666,-0.8639,-0.8637,-0.8689,-0.8695,-0.8701,-0.8766,-0.8717,-0.872,-0.8722,-0.8865,-0.8868,-0.8869,0,0,0,0,0,0,-0.853,-0.854,-0.8622,-0.8584,-0.8594,-0.861,-0.8633,-0.8635,-0.8649,-0.8668,-0.8671,-0.8651,-0.8688,-0.8696,-0.8742,-0.8768,-0.8722,-0.8725,-0.8863,-0.8866,-0.8869,-0.8897,0,0,0,0,0,0,-0.8527,-0.8539,-0.8559,-0.8585,-0.8597,-0.8662,-0.8635,-0.8637,-0.8656,-0.8654,-0.868,-0.8683,-0.8688,-0.8737,-0.8746,-0.8772,-0.8728,-0.8861,-0.8865,-0.8868,-0.8894,-0.89,-0.8905,0,0,0,0,0,-0.8523,-0.8565,-0.856,-0.857,-0.8622,-0.8663,-0.867,-0.8674,-0.8658,-0.8679,-0.8691,-0.8682,-0.8763,-0.8741,-0.8751,-0.8779,-0.886,-0.8864,-0.8867,-0.8891,-0.8899,-0.8905,0,0,0,0,0,0,-0.8542,-0.8568,-0.8564,-0.8615,-0.8637,-0.8661,-0.8687,-0.8682,-0.871,-0.8706,-0.871,-0.8717,-0.8764,-0.8776,-0.8751,-0.8833,-0.8809,-0.8815,-0.8824,-0.8831,-0.8837,-0.8834,-0.8731,0,0,0,0,0,-0.8552,-0.8583,-0.8604,-0.8648,-0.8659,-0.8671,-0.8689,-0.8691,-0.8714,-0.8723,-0.8738,-0.8761,-0.8792,-0.8812,-0.8841,-0.8895,-0.8901,-0.8919,-0.8925,-0.893,-0.8935,-0.8966,-0.8974,-0.8882,-0.8882,-0.8882,0,0,-0.8574,-0.8592,-0.8611,-0.8652,-0.867,-0.8702,-0.8679,-0.8714,-0.8739,-0.8728,-0.8773,-0.8785,-0.881,-0.8861,-0.8884,-0.8872,-0.8962,-0.8935,-0.8938,-0.8942,-0.8971,-0.898,-0.8987,-0.8885,-0.8885,-0.8884,0,0,-0.863,-0.8646,-0.8685,-0.8703,-0.8729,-0.8737,-0.8746,-0.8771,-0.8779,-0.8823,-0.8817,-0.8845,-0.8898,-0.8916,-0.8933,-0.8996,-0.899,-0.9005,-0.9037,-0.9067,-0.9074,-0.908,-0.9104,-0.9113,-0.901,-0.9011,-0.9011,0,-0.8653,-0.8702,-0.8705,-0.8742,-0.876,-0.8752,-0.8792,-0.8808,-0.8843,-0.8856,-0.8843,-0.8909,-0.8925,-0.898,-0.8996,-0.9009,-0.902,-0.9003,-0.9073,-0.9079,-0.9085,-0.9108,-0.9117,-0.9012,-0.9012,-0.9012,-0.9012,0,-0.873,-0.8764,-0.8792,-0.8826,-0.8848,-0.8885,-0.8894,-0.8916,-0.8915,-0.8924,-0.8971,-0.899,-0.9023,-0.9036,-0.9036,-0.9092,-0.9084,-0.9071,-0.9048,-0.9096,-0.9118,-0.9126,-0.9015,-0.9014,-0.9014,-0.9013,0,0,-0.8801,-0.8836,-0.8847,-0.8863,-0.8891,-0.8917,-0.8954,-0.8987,-0.9006,-0.903,-0.9062,-0.9106,-0.9095,-0.9114,-0.9115,-0.9141,-0.9192,-0.9126,-0.9126,-0.9139,-0.9256,-0.9266,-0.9276,-0.9187,-0.9189,-0.919,-0.9254,0,-0.8861,-0.8927,-0.8931,-0.8991,-0.9023,-0.9015,-0.9048,-0.9069,-0.9079,-0.9107,-0.9117,-0.9149,-0.9131,-0.9143,-0.9168,-0.918,-0.9216,-0.9175,-0.9218,-0.9219,-0.9213,-0.9287,-0.9298,-0.9358,-0.9263,-0.9264,-0.9265,0,-0.8939,-0.8967,-0.903,-0.9055,-0.9068,-0.9097,-0.9128,-0.9155,-0.9179,-0.9184,-0.9205,-0.9203,-0.9241,-0.9215,-0.9269,-0.9241,-0.9259,-0.9267,-0.927,-0.9275,-0.9246,-0.9296,-0.9377,-0.9387,-0.9278,-0.9277,-0.9276,0,-0.8987,-0.9038,-0.9083,-0.9097,-0.9126,-0.9147,-0.9161,-0.9183,-0.9203,-0.9229,-0.9242,-0.9273,-0.929,-0.9314,-0.932,-0.93,-0.9374,-0.9348,-0.938,-0.938,-0.9397,-0.9397,-0.9484,-0.9406,-0.9406,-0.9405,-0.9405,0,-0.9054,-0.9093,-0.9105,-0.9133,-0.9177,-0.9181,-0.9224,-0.9236,-0.9256,-0.9286,-0.9281,-0.9309,-0.9315,-0.9345,-0.935,-0.9394,-0.9401,-0.9407,-0.9409,-0.9409,-0.9408,-0.9421,-0.9418,-0.9408,-0.9407,-0.9407,-0.9406,0,-0.9115,-0.9124,-0.9173,-0.9197,-0.9204,-0.9235,-0.9256,-0.9283,-0.9291,-0.933,-0.9339,-0.9353,-0.9387,-0.9396,-0.9436,-0.944,-0.9493,-0.9489,-0.9485,-0.9486,-0.9518,-0.9515,-0.9618,-0.9632,-0.9543,-0.9544,-0.9545,0,-0.9158,-0.9188,-0.9216,-0.9236,-0.925,-0.9282,-0.9303,-0.9307,-0.9329,-0.9358,-0.9382,-0.9416,-0.9444,-0.9499,-0.9513,-0.9544,-0.9542,-0.9576,-0.9547,-0.9547,-0.9545,-0.9544,-0.9547,-0.9582,-0.9583,-0.9584,-0.9585,0,-0.9234,-0.9237,-0.9267,-0.9299,-0.9323,-0.9348,-0.9372,-0.9388,-0.9396,-0.942,-0.9456,-0.9478,-0.952,-0.9554,-0.9586,-0.9599,-0.9594,-0.9593,-0.9603,-0.9604,-0.9602,-0.9605,-0.9502,-0.9591,-0.9591,-0.959,-0.959,-0.959,-0.9288,-0.9316,-0.934,-0.9373,-0.9391,-0.9414,-0.9441,-0.9453,-0.9483,-0.9518,-0.9518,-0.9558,-0.9581,-0.9623,-0.9638,-0.9669,-0.9659,-0.9672,-0.9676,-0.9679,-0.9683,-0.9595,-0.9675,-0.9674,-0.9674,-0.9674,-0.9674,0,-0.9366,-0.9381,-0.9412,-0.9445,-0.9472,-0.9464,-0.949,-0.9512,-0.9547,-0.9569,-0.9597,-0.9638,-0.9671,-0.9687,-0.972,-0.9742,-0.974,-0.9751,-0.975,-0.9754,-0.969,-0.9679,-0.9751,-0.9751,-0.9751,-0.9751,-0.9751,-0.9751,-0.9409,-0.9455,-0.9461,-0.9516,-0.9531,-0.957,-0.9585,-0.9606,-0.9624,-0.9671,-0.9698,-0.9709,-0.9729,-0.9763,-0.9794,-0.9797,-0.981,-0.9822,-0.9825,-0.9766,-0.9758,-0.975,-0.9741,-0.9825,-0.9825,-0.9887,-0.9887,-0.9888]}]]